Huntington, WV

9:10 PM EST on November 17, 2017 (GMT -0500)
Tri-State / Ferguson

Weather History for KHTS - November, 2012

Change the Weather History Date:

Thursday, November 1, 2012

  Actual Average Record
Temperature  
Mean Temperature 46 °F 52 °F  
Max Temperature 53 °F 63 °F 84 °F (1950)
Min Temperature 38 °F 41 °F 22 °F (1906)
Degree Days  
Heating Degree Days 19 13  
Month to date heating degree days 19 13  
Since 1 July heating degree days 420 352  
Cooling Degree Days 0 0  
Month to date cooling degree days 0 0  
Year to date cooling degree days 1325 1132  
Moisture  
Dew Point 32 °F    
Average Humidity 62    
Maximum Humidity 92    
Minimum Humidity 32    
Precipitation  
Precipitation T in 0.12 in 1.30 in (1919)
Month to date precipitation T 0.12  
Year to date precipitation 35.59 35.96  
Snow  
Snow 0.00 in 0.00 in T in (1996)
Month to date snowfall 0.0 0.0  
Since 1 September snowfall 1.9 0.1  
Snow Depth 0.00 in    
Sea Level Pressure  
Sea Level Pressure 29.84 in    
Wind  
Wind Speed 7 mph (WSW)    
Max Wind Speed 16 mph    
Max Gust Speed 23 mph    
Visibility 9 miles    
Events Rain    
T = Trace of Precipitation, MM = Missing Value Source: NWS Daily Summary

Daily Weather History Graph

Daily Weather History Graph

Search for Another Location

Airport or City:

Trip Planner

Search our weather history database for the weather conditions in past years. The results will help you decide how hot, cold, wet, or windy it might be!

Date:

Astronomy

Nov. 01, 2012 Rise Set
Actual Time 7:57 AM EDT 6:30 PM EDT
Civil Twilight 7:29 AM EDT 6:57 PM EDT
Nautical Twilight 6:58 AM EDT 7:28 PM EDT
Astronomical Twilight 6:27 AM EDT 7:59 PM EDT
Moon 8:27 PM EDT (11/1) 10:26 AM EDT (11/1)
Length of Visible Light 11h 27m
Length of Day
10h 32m
Waning Gibbous, 93% of the Moon is Illuminated
Nov 1
Waning Gibbous
Nov 6
Last Quarter
Nov 13
New
Nov 20
First Quarter
Nov 28
Full

Hourly Weather History & Observations

Time (EDT) Temp. Windchill Dew Point Humidity Pressure Visibility Wind Dir Wind Speed Gust Speed Precip Events Conditions
12:51 AM 39.0 °F 34.0 °F 37.0 °F 93% 29.83 in 10.0 mi WSW 6.9 mph - N/A   Overcast
1:51 AM 39.0 °F 34.0 °F 36.0 °F 89% 29.83 in 10.0 mi WSW 6.9 mph - N/A   Overcast
2:51 AM 39.0 °F 33.4 °F 36.0 °F 89% 29.83 in 10.0 mi SW 8.1 mph - 0.00 in   Overcast
3:35 AM 39.2 °F 34.2 °F 35.6 °F 87% 29.82 in 10.0 mi Variable 6.9 mph - N/A   Overcast
3:51 AM 39.0 °F 34.0 °F 36.0 °F 89% 29.82 in 10.0 mi WSW 6.9 mph - N/A   Overcast
4:51 AM 39.0 °F 34.0 °F 35.1 °F 86% 29.82 in 10.0 mi SW 6.9 mph - 0.00 in   Overcast
5:00 AM 39.2 °F 35.0 °F 35.6 °F 87% 29.81 in 10.0 mi WSW 5.8 mph - N/A   Overcast
5:10 AM 39.2 °F 34.2 °F 35.6 °F 87% 29.81 in 10.0 mi WSW 6.9 mph - N/A   Overcast
5:25 AM 39.2 °F 35.0 °F 35.6 °F 87% 29.81 in 10.0 mi WSW 5.8 mph - N/A   Overcast
5:51 AM 39.0 °F 34.0 °F 35.1 °F 86% 29.83 in 10.0 mi WSW 6.9 mph - N/A   Overcast
6:51 AM 39.9 °F 34.5 °F 35.1 °F 83% 29.83 in 10.0 mi WSW 8.1 mph - N/A   Overcast
7:17 AM 39.2 °F 33.6 °F 35.6 °F 87% 29.83 in 10.0 mi WSW 8.1 mph - N/A   Overcast
7:46 AM 39.2 °F 33.6 °F 35.6 °F 87% 29.84 in 10.0 mi WSW 8.1 mph - 0.00 in Rain Light Rain
7:51 AM 39.9 °F 35.1 °F 36.0 °F 86% 29.85 in 6.0 mi WSW 6.9 mph - 0.00 in Rain Light Rain
8:01 AM 39.2 °F 35.0 °F 35.6 °F 87% 29.84 in 6.0 mi SW 5.8 mph - 0.00 in Rain Light Rain
8:48 AM 39.2 °F 35.0 °F 35.6 °F 87% 29.85 in 6.0 mi WSW 5.8 mph - 0.00 in Rain Light Rain
8:51 AM 39.9 °F 35.8 °F 36.0 °F 86% 29.86 in 6.0 mi SW 5.8 mph - 0.00 in   Overcast
9:51 AM 39.9 °F 34.5 °F 36.0 °F 86% 29.87 in 6.0 mi WSW 8.1 mph - 0.00 in   Overcast
10:51 AM 43.0 °F 39.5 °F 36.0 °F 76% 29.87 in 10.0 mi WSW 5.8 mph - N/A   Overcast
11:51 AM 48.0 °F - 37.0 °F 66% 29.86 in 10.0 mi WSW 11.5 mph 18.4 mph N/A   Mostly Cloudy
12:51 PM 46.9 °F - 34.0 °F 61% 29.85 in 10.0 mi West 9.2 mph - N/A   Mostly Cloudy
1:51 PM 50.0 °F - 34.0 °F 54% 29.83 in 10.0 mi West 9.2 mph 19.6 mph N/A   Mostly Cloudy
2:51 PM 52.0 °F - 32.0 °F 47% 29.81 in 10.0 mi SW 10.4 mph 18.4 mph N/A   Scattered Clouds
3:51 PM 53.1 °F - 28.9 °F 40% 29.81 in 10.0 mi WSW 11.5 mph 18.4 mph N/A   Clear
4:51 PM 53.1 °F - 30.0 °F 41% 29.81 in 10.0 mi WSW 10.4 mph 17.3 mph N/A   Mostly Cloudy
5:51 PM 51.1 °F - 26.1 °F 38% 29.82 in 10.0 mi West 9.2 mph - N/A   Overcast
6:51 PM 50.0 °F - 21.9 °F 33% 29.84 in 10.0 mi West 8.1 mph 16.1 mph N/A   Overcast
7:51 PM 48.0 °F - 21.0 °F 34% 29.86 in 10.0 mi WSW 6.9 mph - N/A   Mostly Cloudy
8:51 PM 46.0 °F 43.1 °F 21.9 °F 39% 29.87 in 10.0 mi SW 5.8 mph - N/A   Mostly Cloudy
9:51 PM 45.0 °F 42.6 °F 23.0 °F 42% 29.87 in 10.0 mi SW 4.6 mph - N/A   Mostly Cloudy
10:51 PM 45.0 °F 43.5 °F 23.0 °F 42% 29.87 in 10.0 mi SSW 3.5 mph - N/A   Overcast
11:51 PM 45.0 °F - 24.1 °F 44% 29.87 in 10.0 mi Calm Calm - N/A   Overcast